#timestamp,LO_Frequency,Hit,StdDev 
1609082815.6,286047019.6,P
1609082835.4,286047017.5,P
1609082855.3,286047017.9,P
1609082875.1,286047019.2,Y
1609082876.0,286047019.2,P
1609082895.8,286047002.6,P
1609082915.7,286046999.9,N
1609082935.5,286047002.2,N
1609082955.3,286047002.7,N
1609082975.2,286047002.5,N
1609082995.0,286047002.0,N
1609082995.9,286047002.0,N
1609083015.8,286047001.4,N
1609083035.6,286047002.1,N
1609083055.4,286047001.9,N
1609083075.3,286047003.8,N
1609083095.1,286047005.9,N
1609083115.9,286047005.3,N
1609083135.7,286047005.4,N
1609083155.5,286047005.6,N
1609083175.4,286047007.0,N
1609083195.2,286047006.2,N
1609083215.0,286047004.7,N
1609083215.9,286047004.7,N
1609083235.8,286047006.5,N
1609083255.6,286047007.5,N
1609083275.5,286047007.0,N
1609083295.3,286047009.2,N
1609083315.1,286047007.8,N
1609083335.9,286047008.9,N
1609083355.7,286047008.3,N
1609083375.6,286047009.2,N
1609083395.4,286047008.3,N
1609083415.2,286047007.9,N
1609083435.1,286047010.2,N
1609083436.0,286047010.2,Y
1609083455.8,286047005.3,P
1609083475.7,286047005.8,P
1609083495.5,286047005.3,P
1609083515.3,286047005.0,Y
1609083535.2,286047002.8,P
1609083555.0,286047002.4,N
1609083555.9,286047002.4,N
1609083575.7,286047002.8,N
1609083595.6,286047000.5,N
1609083615.4,286046999.8,N
1609083635.3,286047002.1,N
1609083655.1,286047001.5,N
1609083656.0,286047001.5,N
1609083675.8,286047002.9,N
1609083695.7,286047003.5,N
1609083715.5,286047004.9,Y
1609083735.3,286047003.7,P
1609083755.2,286047001.5,N
1609083775.0,286047002.9,P
1609083775.9,286047002.9,Y
1609083795.8,286047004.1,P
1609083815.6,286047004.8,P
1609083835.4,286047003.0,P
1609083855.3,286047003.1,Y
1609083875.1,286046998.1,P
1609083895.9,286047002.4,N
1609083915.7,286047003.1,N
1609083935.5,286047002.1,N
1609083955.4,286047002.7,N
1609083975.2,286047000.7,N
1609083995.0,286047002.4,N
1609083995.9,286047002.4,N
1609084015.8,286047002.4,N
1609084035.6,286047002.6,N
1609084055.5,286047003.0,N
1609084075.3,286047001.8,N
1609084095.1,286047002.5,N
1609084115.9,286047000.4,N
1609084135.7,286046999.9,N
1609084155.5,286047002.2,N
1609084175.4,286047002.3,N
1609084195.2,286047001.7,N
1609084215.1,286047003.7,N
1609084216.0,286047003.7,N
1609084235.8,286047003.7,N
1609084255.6,286047005.1,Y
1609084275.5,286047004.4,P
1609084295.3,286047000.0,N
1609084315.2,286047002.8,N
1609084335.9,286047003.9,N
1609084355.7,286047004.4,N
1609084375.6,286047004.2,N
1609084395.4,286047003.5,N
1609084415.2,286047005.1,Y
1609084435.1,286047004.3,P
1609084436.0,286047004.3,P
1609084455.8,286047001.3,N
1609084475.7,286047003.1,N
1609084495.5,286047002.2,N
1609084515.3,286047001.9,N
1609084535.2,286046999.7,N
1609084555.0,286047000.0,N
1609084555.9,286047000.0,N
1609084575.8,286047000.2,N
1609084595.6,286047002.7,N
1609084615.4,286047000.8,N
1609084635.3,286046998.7,N
1609084655.1,286047000.4,N
1609084675.8,286047002.4,N
1609084695.7,286046998.4,N
1609084715.5,286046999.3,N
1609084735.4,286046997.8,N
1609084755.2,286046997.4,N
1609084775.0,286046996.5,N
1609084775.9,286046996.5,N
1609084795.8,286046996.5,N
